User: anonymous   Login
Location: B?dargowo
(53.3916°N, 14.4413°E)
Time: 20:49:53
(UTC+00:00)
Language:

METEOR 2-5 DEB - Orbit

View from above orbital plane
View from above orbital plane
View from above satellite
View from above satellite

Ground track
Ground track

The orbit data is extracted from the following two-line orbital elements,

1 28554U 79095C   24061.69542408  .00021995  00000-0  47926-2 0  9991
2 28554  81.1818  60.3488 0033207  80.8621 279.6330 14.57470119490341
Epoch (UTC): 01 March 2024 16:41:24
Eccentricity: 0.0033207
inclination: 81.1818°
perigee height: 678 km
apogee height: 725 km
right ascension of ascending node: 60.3488°
argument of perigee: 80.8621°
revolutions per day: 14.57470119
mean anomaly at epoch: 279.6330°
orbit number at epoch: 49034

The dashed part of the orbit path shows where the satellite is in the earth's shadow,  

DLR